{"data":{"norad_id":29228,"intl_designator":"2006-021A","name":"RESURS-DK 1","alt_names":[],"object_type":"PAYLOAD","status":"ACTIVE","operator":null,"country":"CIS","launch_date":"2006-06-15","launch_site_code":"TYMSC","launch_vehicle":null,"mission":null,"orbit_class":"UNKNOWN","rcs_meters":8.7657,"size_class":null,"mass_kg":null,"dimensions":null,"purposes":["earth_obs"],"wikipedia_slug":null,"has_3d_model":false,"image_url":null,"decayed_at":null,"tle_current":{"epoch":"2026-05-25T02:19:14.826432Z","epoch_age_seconds":66423,"freshness":"FRESH","line1":"1 29228U 06021A   26145.09669938  .00001628  00000+0  97842-4 0  9990","line2":"2 29228  69.9323  39.3216 0005261 319.3729  40.7044 15.13100064 99085","mean_motion":15.13100064,"eccentricity":0.0005261,"inclination_deg":69.9323,"raan_deg":39.3216,"arg_perigee_deg":319.3729,"mean_anomaly_deg":40.7044,"bstar":9.7842e-5,"rev_number":9908,"period_min":95.168854609208,"perigee_km":523.11997546379,"apogee_km":530.38530034079,"semimajor_km":6904.8896379023,"source":"CELESTRAK","updated_at":"2026-05-25T13:38:12.743474Z"}}}